| time (UTC) | temp F | wind direction | speed knots | gust knots | rain 1hr in | rain 24hr in | rain mn in | humidity % | barometer mb |
| 20260505112004 | 65 | 342 | 1.7 | 3.5 | 0.00 | 0.00 | 0.00 | 88 | 1016.1 |
| 20260505111504 | 65 | 337 | 1.7 | 3.5 | 0.00 | 0.00 | 0.00 | 88 | 1016.0 |
| 20260505111026 | 65 | 323 | 0.9 | 3.5 | 0.00 | 0.00 | 0.00 | 87 | 1016.1 |
| 20260505110504 | 65 | 322 | 0.9 | 2.6 | 0.00 | 0.00 | 0.00 | 87 | 1015.8 |
| 20260505101504 | 65 | 337 | 1.7 | 4.3 | 0.00 | 0.00 | 0.00 | 87 | 1015.7 |
| 20260505101004 | 65 | 305 | 0.9 | 3.5 | 0.00 | 0.00 | 0.00 | 87 | 1015.6 |
| 20260505100504 | 65 | 301 | 0.9 | 2.6 | 0.00 | 0.00 | 0.00 | 87 | 1015.7 |
| 20260505100005 | 65 | 331 | 0.9 | 2.6 | 0.00 | 0.00 | 0.00 | 87 | 1015.6 |
| 20260505095526 | 66 | 313 | 0.9 | 3.5 | 0.00 | 0.00 | 0.00 | 87 | 1015.6 |
| 20260505095004 | 66 | 308 | 0.9 | 3.5 | 0.00 | 0.00 | 0.00 | 87 | 1015.6 |
| 20260505094505 | 66 | 331 | 0.9 | 3.5 | 0.00 | 0.00 | 0.00 | 86 | 1015.3 |
| 20260505094004 | 66 | 317 | 0.9 | 2.6 | 0.00 | 0.00 | 0.00 | 86 | 1015.2 |
| 20260505093525 | 66 | 310 | 0.9 | 2.6 | 0.00 | 0.00 | 0.00 | 86 | 1015.3 |
| 20260505093005 | 66 | 287 | 0.9 | 3.5 | 0.00 | 0.00 | 0.00 | 86 | 1015.2 |
| 20260505092504 | 66 | 312 | 0.9 | 3.5 | 0.00 | 0.00 | 0.00 | 86 | 1015.2 |
| 20260505092004 | 66 | 327 | 0.9 | 2.6 | 0.00 | 0.00 | 0.00 | 86 | 1015.2 |
| 20260505091505 | 66 | 329 | 0.9 | 2.6 | 0.00 | 0.00 | 0.00 | 86 | 1015.0 |
| 20260505091004 | 66 | 350 | 1.7 | 3.5 | 0.00 | 0.00 | 0.00 | 86 | 1015.1 |
| 20260505090504 | 66 | 344 | 1.7 | 3.5 | 0.00 | 0.00 | 0.00 | 86 | 1015.0 |
| 20260505090004 | 66 | 329 | 1.7 | 3.5 | 0.00 | 0.00 | 0.00 | 86 | 1015.0 |
| 20260505085504 | 66 | 320 | 0.9 | 3.5 | 0.00 | 0.00 | 0.00 | 86 | 1015.1 |
| 20260505085004 | 66 | 326 | 0.9 | 3.5 | 0.00 | 0.00 | 0.00 | 86 | 1015.1 |
| 20260505084504 | 66 | 329 | 0.9 | 3.5 | 0.00 | 0.00 | 0.00 | 86 | 1015.1 |
| 20260505084025 | 66 | 319 | 0.9 | 3.5 | 0.00 | 0.00 | 0.00 | 86 | 1015.1 |
| 20260505083504 | 66 | 320 | 0.9 | 1.7 | 0.00 | 0.00 | 0.00 | 86 | 1015.2 |
| 20260505083006 | 66 | 321 | 0.9 | 2.6 | 0.00 | 0.00 | 0.00 | 85 | 1015.1 |
| 20260505082504 | 66 | 316 | 0.9 | 3.5 | 0.00 | 0.00 | 0.00 | 85 | 1015.3 |
| 20260505082004 | 67 | 320 | 0.9 | 3.5 | 0.00 | 0.00 | 0.00 | 85 | 1015.2 |
| 20260505081525 | 67 | 325 | 0.9 | 3.5 | 0.00 | 0.00 | 0.00 | 85 | 1015.1 |
| 20260505081005 | 67 | 329 | 0.9 | 3.5 | 0.00 | 0.00 | 0.00 | 85 | 1015.2 |
| 20260505080504 | 67 | 326 | 0.9 | 3.5 | 0.00 | 0.00 | 0.00 | 84 | 1015.2 |
| 20260505080004 | 67 | 318 | 0.9 | 3.5 | 0.00 | 0.00 | 0.00 | 84 | 1015.4 |
| 20260505075525 | 67 | 324 | 0.9 | 3.5 | 0.00 | 0.00 | 0.00 | 84 | 1015.4 |
| 20260505075004 | 67 | 322 | 0.9 | 3.5 | 0.00 | 0.00 | 0.00 | 84 | 1015.4 |
| 20260505074505 | 67 | 312 | 0.9 | 3.5 | 0.00 | 0.00 | 0.00 | 84 | 1015.4 |
| 20260505074004 | 67 | 324 | 0.9 | 3.5 | 0.00 | 0.00 | 0.00 | 83 | 1015.5 |
| 20260505073504 | 67 | 316 | 0.9 | 2.6 | 0.00 | 0.00 | 0.00 | 83 | 1015.4 |
| 20260505073004 | 68 | 307 | 0.9 | 2.6 | 0.00 | 0.00 | 0.00 | 83 | 1015.4 |
| 20260505072505 | 68 | 314 | 0.9 | 2.6 | 0.00 | 0.00 | 0.00 | 83 | 1015.6 |
| 20260505072004 | 68 | 331 | 0.9 | 2.6 | 0.00 | 0.00 | 0.00 | 83 | 1015.3 |
| 20260505071505 | 68 | 335 | 0.9 | 1.7 | 0.00 | 0.00 | 0.00 | 83 | 1015.4 |
| 20260505071004 | 68 | 322 | 0.9 | 3.5 | 0.00 | 0.00 | 0.00 | 83 | 1015.4 |
| 20260505070505 | 68 | 319 | 0.9 | 3.5 | 0.00 | 0.00 | 0.00 | 82 | 1015.4 |
| 20260505070026 | 68 | 321 | 0.9 | 3.5 | 0.00 | 0.00 | 0.00 | 82 | 1015.6 |
| 20260505065504 | 68 | 322 | 0.9 | 3.5 | 0.00 | 0.00 | 0.00 | 82 | 1015.3 |
| 20260505065025 | 69 | 317 | 0.9 | 2.6 | 0.00 | 0.00 | 0.00 | 82 | 1015.4 |
| 20260505064504 | 69 | 316 | 0.9 | 2.6 | 0.00 | 0.00 | 0.00 | 82 | 1015.6 |
| 20260505064004 | 69 | 307 | 0.9 | 2.6 | 0.00 | 0.00 | 0.00 | 81 | 1015.6 |
| 20260505063504 | 69 | 304 | 0.9 | 2.6 | 0.00 | 0.00 | 0.00 | 81 | 1015.8 |
| 20260505063025 | 69 | 311 | 0.9 | 3.5 | 0.00 | 0.00 | 0.00 | 81 | 1016.1 |
| 20260505062504 | 69 | 314 | 0.9 | 3.5 | 0.00 | 0.00 | 0.00 | 80 | 1015.9 |
| 20260505062004 | 70 | 274 | 0.0 | 1.7 | 0.00 | 0.00 | 0.00 | 80 | 1016.1 |
| 20260505061505 | 70 | 265 | 0.0 | 1.7 | 0.00 | 0.00 | 0.00 | 80 | 1016.3 |
| 20260505061005 | 70 | 286 | 0.0 | 1.7 | 0.00 | 0.00 | 0.00 | 79 | 1016.2 |
| 20260505060504 | 70 | 301 | 0.0 | 1.7 | 0.00 | 0.00 | 0.00 | 79 | 1016.2 |
| 20260505060004 | 70 | 319 | 0.9 | 2.6 | 0.00 | 0.00 | 0.00 | 79 | 1016.0 |
| 20260505055504 | 71 | 324 | 0.9 | 2.6 | 0.00 | 0.00 | 0.00 | 78 | 1016.1 |
| 20260505055025 | 71 | 330 | 0.9 | 2.6 | 0.00 | 0.00 | 0.00 | 78 | 1016.3 |
| 20260505054504 | 71 | 337 | 0.9 | 2.6 | 0.00 | 0.00 | 0.00 | 78 | 1015.9 |
| 20260505054004 | 71 | 325 | 0.9 | 3.5 | 0.00 | 0.00 | 0.00 | 77 | 1016.2 |
| 20260505053504 | 71 | 341 | 0.9 | 3.5 | 0.00 | 0.00 | 0.00 | 77 | 1016.2 |
| 20260505053005 | 71 | 357 | 0.9 | 3.5 | 0.00 | 0.00 | 0.00 | 77 | 1016.3 |
| 20260505052504 | 71 | 340 | 0.9 | 3.5 | 0.00 | 0.00 | 0.00 | 77 | 1016.2 |
| 20260505052004 | 71 | 328 | 0.9 | 2.6 | 0.00 | 0.00 | 0.00 | 77 | 1016.4 |
| 20260505051504 | 71 | 334 | 0.9 | 2.6 | 0.00 | 0.00 | 0.00 | 77 | 1016.3 |
| 20260505051005 | 71 | 338 | 0.9 | 2.6 | 0.00 | 0.00 | 0.00 | 77 | 1016.2 |
| 20260505050504 | 72 | 332 | 0.9 | 2.6 | 0.00 | 0.00 | 0.00 | 76 | 1016.4 |
| 20260505041504 | 72 | 16 | 0.9 | 3.5 | 0.00 | 0.00 | 0.00 | 75 | 1016.7 |
| 20260505041004 | 72 | 352 | 1.7 | 4.3 | 0.00 | 0.00 | 0.00 | 75 | 1016.8 |
| 20260505040504 | 72 | 338 | 1.7 | 4.3 | 0.00 | 0.00 | 0.00 | 75 | 1016.6 |
| 20260505040005 | 72 | 337 | 1.7 | 3.5 | 0.00 | 0.00 | 0.00 | 75 | 1016.7 |
| 20260505035504 | 72 | 342 | 0.9 | 3.5 | 0.00 | 0.00 | 0.00 | 75 | 1016.8 |
| 20260505035004 | 72 | 347 | 0.9 | 3.5 | 0.00 | 0.00 | 0.00 | 75 | 1016.7 |
| 20260505034504 | 72 | 349 | 0.9 | 2.6 | 0.00 | 0.00 | 0.00 | 76 | 1016.8 |
| 20260505034025 | 73 | 5 | 0.9 | 2.6 | 0.00 | 0.00 | 0.00 | 75 | 1017.1 |
| 20260505033526 | 73 | 350 | 0.9 | 2.6 | 0.00 | 0.00 | 0.00 | 74 | 1016.9 |
| 20260505033004 | 73 | 344 | 1.7 | 3.5 | 0.00 | 0.00 | 0.00 | 74 | 1017.0 |
| 20260505032504 | 73 | 342 | 1.7 | 5.2 | 0.00 | 0.00 | 0.00 | 73 | 1016.9 |
| 20260505032004 | 73 | 339 | 1.7 | 5.2 | 0.00 | 0.00 | 0.00 | 73 | 1016.9 |
| 20260505031504 | 73 | 343 | 1.7 | 3.5 | 0.00 | 0.00 | 0.00 | 73 | 1016.7 |
| 20260505031004 | 74 | 357 | 0.9 | 3.5 | 0.00 | 0.00 | 0.00 | 72 | 1016.9 |
| 20260505030525 | 74 | 360 | 0.9 | 4.3 | 0.00 | 0.00 | 0.00 | 72 | 1017.0 |
| 20260505030026 | 74 | 352 | 1.7 | 4.3 | 0.00 | 0.00 | 0.00 | 72 | 1017.0 |
| 20260505025504 | 74 | 2 | 1.7 | 6.1 | 0.00 | 0.00 | 0.00 | 72 | 1016.9 |
| 20260505025004 | 74 | 5 | 1.7 | 6.1 | 0.00 | 0.00 | 0.00 | 72 | 1017.0 |
| 20260505024504 | 74 | 341 | 1.7 | 5.2 | 0.00 | 0.00 | 0.00 | 72 | 1016.8 |
| 20260505024004 | 74 | 339 | 1.7 | 5.2 | 0.00 | 0.00 | 0.00 | 72 | 1016.8 |
| 20260505023505 | 74 | 3 | 1.7 | 4.3 | 0.00 | 0.00 | 0.00 | 72 | 1016.7 |
| 20260505023025 | 74 | 3 | 1.7 | 4.3 | 0.00 | 0.00 | 0.00 | 72 | 1016.7 |
| 20260505022504 | 74 | 346 | 0.9 | 3.5 | 0.00 | 0.00 | 0.00 | 72 | 1016.7 |
| 20260505022025 | 74 | 359 | 0.9 | 3.5 | 0.00 | 0.00 | 0.00 | 71 | 1016.7 |
| 20260505021526 | 75 | 358 | 1.7 | 5.2 | 0.00 | 0.00 | 0.00 | 71 | 1016.6 |
| 20260505021025 | 75 | 356 | 1.7 | 5.2 | 0.00 | 0.00 | 0.00 | 71 | 1016.5 |
| 20260505020504 | 75 | 14 | 0.9 | 3.5 | 0.00 | 0.00 | 0.00 | 71 | 1016.7 |
| 20260505020025 | 75 | 5 | 1.7 | 4.3 | 0.00 | 0.00 | 0.00 | 70 | 1016.5 |
| 20260505015504 | 75 | 1 | 1.7 | 4.3 | 0.00 | 0.00 | 0.00 | 70 | 1016.5 |
| 20260505015004 | 75 | 357 | 1.7 | 4.3 | 0.00 | 0.00 | 0.00 | 70 | 1016.4 |
| 20260505014504 | 75 | 355 | 1.7 | 4.3 | 0.00 | 0.00 | 0.00 | 70 | 1016.5 |
| 20260505014005 | 75 | 1 | 1.7 | 4.3 | 0.00 | 0.00 | 0.00 | 70 | 1016.2 |
| 20260505013525 | 76 | 5 | 0.9 | 4.3 | 0.00 | 0.00 | 0.00 | 71 | 1016.2 |
| 20260505013006 | 76 | 350 | 0.9 | 3.5 | 0.00 | 0.00 | 0.00 | 71 | 1016.2 |
| 20260505012504 | 76 | 340 | 0.9 | 3.5 | 0.00 | 0.00 | 0.00 | 70 | 1016.2 |
| 20260505012025 | 76 | 333 | 0.9 | 3.5 | 0.00 | 0.00 | 0.00 | 69 | 1016.1 |
| 20260505011504 | 76 | 347 | 0.9 | 3.5 | 0.00 | 0.00 | 0.00 | 68 | 1016.2 |
| 20260505011004 | 77 | 8 | 1.7 | 3.5 | 0.00 | 0.00 | 0.00 | 68 | 1016.1 |
| 20260505010504 | 77 | 13 | 1.7 | 5.2 | 0.00 | 0.00 | 0.00 | 67 | 1016.3 |
| 20260505010005 | 77 | 359 | 1.7 | 5.2 | 0.00 | 0.00 | 0.00 | 67 | 1015.8 |
| 20260505005504 | 77 | 356 | 1.7 | 5.2 | 0.00 | 0.00 | 0.00 | 68 | 1015.8 |
| 20260505005025 | 77 | 3 | 1.7 | 5.2 | 0.00 | 0.00 | 0.00 | 67 | 1015.9 |
| 20260505004504 | 77 | 5 | 1.7 | 5.2 | 0.00 | 0.00 | 0.00 | 67 | 1015.8 |
| 20260505004004 | 77 | 12 | 1.7 | 4.3 | 0.00 | 0.00 | 0.00 | 67 | 1015.6 |
| 20260505003504 | 77 | 6 | 1.7 | 4.3 | 0.00 | 0.00 | 0.00 | 67 | 1015.5 |
| 20260505003004 | 78 | 346 | 1.7 | 5.2 | 0.00 | 0.00 | 0.00 | 67 | 1015.6 |
| 20260505002504 | 78 | 354 | 1.7 | 8.7 | 0.00 | 0.00 | 0.00 | 66 | 1015.3 |
| 20260505002004 | 78 | 2 | 1.7 | 8.7 | 0.00 | 0.00 | 0.00 | 65 | 1015.3 |
| 20260505001504 | 79 | 5 | 1.7 | 6.1 | 0.00 | 0.00 | 0.00 | 64 | 1015.2 |
| 20260505001004 | 79 | 8 | 0.9 | 3.5 | 0.00 | 0.00 | 0.00 | 64 | 1014.9 |
| 20260505000504 | 79 | 352 | 0.9 | 4.3 | 0.00 | 0.00 | 0.00 | 64 | 1015.1 |
| 20260505000026 | 79 | 353 | 1.7 | 4.3 | 0.00 | 0.00 | 0.00 | 64 | 1014.6 |
| 20260504235504 | 79 | 346 | 0.9 | 5.2 | 0.00 | 0.00 | 0.00 | 63 | 1014.8 |
| 20260504235004 | 80 | 360 | 0.9 | 5.2 | 0.00 | 0.00 | 0.00 | 63 | 1014.9 |
| 20260504234504 | 80 | 21 | 1.7 | 5.2 | 0.00 | 0.00 | 0.00 | 62 | 1014.9 |
| 20260504234025 | 80 | 14 | 1.7 | 5.2 | 0.00 | 0.00 | 0.00 | 62 | 1014.8 |
| 20260504233504 | 80 | 7 | 1.7 | 4.3 | 0.00 | 0.00 | 0.00 | 62 | 1014.7 |
| 20260504233004 | 80 | 9 | 1.7 | 6.1 | 0.00 | 0.00 | 0.00 | 62 | 1014.4 |
| 20260504232504 | 80 | 12 | 1.7 | 6.1 | 0.00 | 0.00 | 0.00 | 61 | 1014.4 |
| 20260504232025 | 81 | 20 | 1.7 | 5.2 | 0.00 | 0.00 | 0.00 | 60 | 1014.5 |
| 20260504231504 | 81 | 30 | 1.7 | 5.2 | 0.00 | 0.00 | 0.00 | 60 | 1014.4 |
| 20260504231004 | 81 | 16 | 1.7 | 5.2 | 0.00 | 0.00 | 0.00 | 59 | 1014.2 |
| 20260504230504 | 81 | 356 | 2.6 | 5.2 | 0.00 | 0.00 | 0.00 | 59 | 1014.1 |
| 20260504230005 | 82 | 359 | 2.6 | 5.2 | 0.00 | 0.00 | 0.00 | 58 | 1014.2 |
| 20260504225504 | 82 | 11 | 2.6 | 5.2 | 0.00 | 0.00 | 0.00 | 57 | 1014.0 |
| 20260504225004 | 83 | 16 | 1.7 | 5.2 | 0.00 | 0.00 | 0.00 | 57 | 1014.3 |
| 20260504224504 | 83 | 15 | 0.9 | 3.5 | 0.00 | 0.00 | 0.00 | 56 | 1014.2 |
| 20260504224025 | 83 | 2 | 1.7 | 3.5 | 0.00 | 0.00 | 0.00 | 56 | 1014.3 |
| 20260504223504 | 83 | 6 | 1.7 | 4.3 | 0.00 | 0.00 | 0.00 | 56 | 1014.3 |
| 20260504223004 | 83 | 24 | 1.7 | 5.2 | 0.00 | 0.00 | 0.00 | 54 | 1014.2 |
| 20260504222526 | 84 | 27 | 1.7 | 5.2 | 0.00 | 0.00 | 0.00 | 54 | 1014.3 |
| 20260504222004 | 84 | 19 | 1.7 | 5.2 | 0.00 | 0.00 | 0.00 | 54 | 1014.3 |
| 20260504221505 | 85 | 19 | 1.7 | 6.1 | 0.00 | 0.00 | 0.00 | 53 | 1014.3 |
| 20260504221025 | 85 | 11 | 0.9 | 6.1 | 0.00 | 0.00 | 0.00 | 54 | 1014.3 |
| 20260504220504 | 85 | 354 | 0.9 | 3.5 | 0.00 | 0.00 | 0.00 | 53 | 1014.3 |
| 20260504220004 | 84 | 11 | 0.9 | 3.5 | 0.00 | 0.00 | 0.00 | 52 | 1014.3 |
| 20260504215504 | 84 | 24 | 1.7 | 4.3 | 0.00 | 0.00 | 0.00 | 53 | 1014.4 |
| 20260504215026 | 84 | 24 | 1.7 | 4.3 | 0.00 | 0.00 | 0.00 | 52 | 1014.3 |
| 20260504214525 | 84 | 7 | 1.7 | 5.2 | 0.00 | 0.00 | 0.00 | 51 | 1014.1 |
| 20260504214004 | 84 | 357 | 1.7 | 5.2 | 0.00 | 0.00 | 0.00 | 52 | 1014.2 |
| 20260504213504 | 84 | 14 | 2.6 | 6.1 | 0.00 | 0.00 | 0.00 | 52 | 1014.3 |
| 20260504213004 | 85 | 22 | 1.7 | 6.1 | 0.00 | 0.00 | 0.00 | 52 | 1014.3 |
| 20260504212504 | 86 | 13 | 1.7 | 5.2 | 0.00 | 0.00 | 0.00 | 52 | 1014.2 |
| 20260504212004 | 85 | 10 | 1.7 | 5.2 | 0.00 | 0.00 | 0.00 | 52 | 1014.5 |
| 20260504211525 | 85 | 6 | 1.7 | 4.3 | 0.00 | 0.00 | 0.00 | 49 | 1014.2 |
| 20260504211004 | 86 | 14 | 0.9 | 4.3 | 0.00 | 0.00 | 0.00 | 50 | 1014.2 |
| 20260504210504 | 87 | 24 | 1.7 | 4.3 | 0.00 | 0.00 | 0.00 | 50 | 1014.5 |
| 20260504210006 | 86 | 25 | 1.7 | 5.2 | 0.00 | 0.00 | 0.00 | 50 | 1014.5 |
| 20260504205504 | 86 | 21 | 0.9 | 5.2 | 0.00 | 0.00 | 0.00 | 49 | 1014.5 |
| 20260504205004 | 85 | 16 | 0.9 | 3.5 | 0.00 | 0.00 | 0.00 | 50 | 1014.6 |
| 20260504204504 | 85 | 19 | 1.7 | 3.5 | 0.00 | 0.00 | 0.00 | 50 | 1014.5 |
| 20260504204025 | 86 | 23 | 1.7 | 4.3 | 0.00 | 0.00 | 0.00 | 50 | 1014.6 |
| 20260504203504 | 86 | 18 | 1.7 | 4.3 | 0.00 | 0.00 | 0.00 | 49 | 1014.6 |
| 20260504203004 | 85 | 14 | 1.7 | 4.3 | 0.00 | 0.00 | 0.00 | 49 | 1014.7 |
| 20260504202525 | 86 | 16 | 2.6 | 7.0 | 0.00 | 0.00 | 0.00 | 50 | 1014.6 |
| 20260504202004 | 86 | 22 | 2.6 | 7.0 | 0.00 | 0.00 | 0.00 | 49 | 1014.7 |
| 20260504201504 | 87 | 43 | 1.7 | 4.3 | 0.00 | 0.00 | 0.00 | 47 | 1014.7 |
| 20260504201025 | 89 | 24 | 0.9 | 5.2 | 0.00 | 0.00 | 0.00 | 46 | 1014.7 |
| 20260504200525 | 87 | 14 | 1.7 | 8.7 | 0.00 | 0.00 | 0.00 | 48 | 1014.8 |
| 20260504200004 | 87 | 15 | 1.7 | 8.7 | 0.00 | 0.00 | 0.00 | 48 | 1014.8 |
| 20260504195505 | 87 | 21 | 1.7 | 3.5 | 0.00 | 0.00 | 0.00 | 48 | 1014.8 |
| 20260504195004 | 88 | 17 | 1.7 | 5.2 | 0.00 | 0.00 | 0.00 | 46 | 1014.9 |
| 20260504194504 | 87 | 18 | 2.6 | 7.8 | 0.00 | 0.00 | 0.00 | 49 | 1015.1 |
| 20260504194004 | 87 | 18 | 1.7 | 7.8 | 0.00 | 0.00 | 0.00 | 48 | 1015.2 |
| 20260504193525 | 87 | 11 | 1.7 | 7.8 | 0.00 | 0.00 | 0.00 | 47 | 1015.3 |
| 20260504193004 | 86 | 14 | 1.7 | 4.3 | 0.00 | 0.00 | 0.00 | 48 | 1015.0 |
| 20260504192504 | 85 | 24 | 1.7 | 6.1 | 0.00 | 0.00 | 0.00 | 50 | 1015.1 |
| 20260504192004 | 85 | 30 | 1.7 | 6.1 | 0.00 | 0.00 | 0.00 | 49 | 1015.3 |
| 20260504191504 | 87 | 26 | 1.7 | 4.3 | 0.00 | 0.00 | 0.00 | 48 | 1015.3 |
| 20260504191004 | 87 | 14 | 1.7 | 4.3 | 0.00 | 0.00 | 0.00 | 48 | 1015.4 |
| 20260504190504 | 86 | 5 | 1.7 | 4.3 | 0.00 | 0.00 | 0.00 | 48 | 1015.5 |
| 20260504190004 | 87 | 11 | 1.7 | 5.2 | 0.00 | 0.00 | 0.00 | 48 | 1015.8 |
| 20260504185504 | 86 | 22 | 1.7 | 5.2 | 0.00 | 0.00 | 0.00 | 49 | 1015.7 |
| 20260504185025 | 88 | 14 | 1.7 | 5.2 | 0.00 | 0.00 | 0.00 | 48 | 1015.7 |
| 20260504184504 | 87 | 358 | 1.7 | 5.2 | 0.00 | 0.00 | 0.00 | 49 | 1015.9 |
| 20260504184004 | 87 | 337 | 1.7 | 5.2 | 0.00 | 0.00 | 0.00 | 48 | 1015.9 |
| 20260504183504 | 87 | 347 | 1.7 | 5.2 | 0.00 | 0.00 | 0.00 | 46 | 1016.2 |
| 20260504183004 | 85 | 19 | 1.7 | 7.0 | 0.00 | 0.00 | 0.00 | 50 | 1016.0 |
| 20260504182504 | 84 | 22 | 2.6 | 7.0 | 0.00 | 0.00 | 0.00 | 51 | 1016.3 |
| 20260504182004 | 86 | 4 | 1.7 | 5.2 | 0.00 | 0.00 | 0.00 | 49 | 1016.4 |
| 20260504181505 | 85 | 9 | 1.7 | 6.1 | 0.00 | 0.00 | 0.00 | 51 | 1016.6 |
| 20260504181025 | 85 | 6 | 1.7 | 6.1 | 0.00 | 0.00 | 0.00 | 51 | 1016.6 |
| 20260504180504 | 84 | 350 | 1.7 | 5.2 | 0.00 | 0.00 | 0.00 | 51 | 1016.6 |
| 20260504180005 | 85 | 2 | 1.7 | 5.2 | 0.00 | 0.00 | 0.00 | 52 | 1016.6 |
| 20260504175504 | 84 | 21 | 1.7 | 4.3 | 0.00 | 0.00 | 0.00 | 53 | 1016.7 |
| 20260504175004 | 85 | 5 | 1.7 | 5.2 | 0.00 | 0.00 | 0.00 | 51 | 1016.7 |
| 20260504174504 | 84 | 356 | 1.7 | 5.2 | 0.00 | 0.00 | 0.00 | 51 | 1016.8 |
| 20260504174004 | 85 | 359 | 1.7 | 5.2 | 0.00 | 0.00 | 0.00 | 51 | 1016.9 |
| 20260504173504 | 85 | 350 | 1.7 | 5.2 | 0.00 | 0.00 | 0.00 | 52 | 1016.8 |
| 20260504173004 | 85 | 11 | 1.7 | 5.2 | 0.00 | 0.00 | 0.00 | 50 | 1016.6 |
| 20260504172525 | 85 | 27 | 1.7 | 5.2 | 0.00 | 0.00 | 0.00 | 52 | 1017.1 |
| 20260504172004 | 85 | 359 | 1.7 | 6.1 | 0.00 | 0.00 | 0.00 | 49 | 1017.1 |
| 20260504171505 | 84 | 354 | 1.7 | 6.1 | 0.00 | 0.00 | 0.00 | 52 | 1017.4 |
| 20260504171004 | 83 | 351 | 1.7 | 5.2 | 0.00 | 0.00 | 0.00 | 51 | 1017.1 |
| 20260504170525 | 83 | 3 | 1.7 | 7.0 | 0.00 | 0.00 | 0.00 | 52 | 1017.4 |
| 20260504151025 | 82 | 352 | 1.7 | 5.2 | 0.00 | 0.00 | 0.00 | 54 | 1018.0 |
| 20260504150504 | 81 | 357 | 1.7 | 5.2 | 0.00 | 0.00 | 0.00 | 54 | 1018.0 |
| 20260504141004 | 78 | 1 | 2.6 | 6.1 | 0.00 | 0.00 | 0.00 | 61 | 1017.8 |
| 20260504140504 | 77 | 2 | 2.6 | 6.1 | 0.00 | 0.00 | 0.00 | 61 | 1017.9 |
| 20260504130526 | 73 | 310 | 0.9 | 5.2 | 0.00 | 0.00 | 0.00 | 71 | 1017.6 |